map of LOS home
LOS - Airport
Location
City:  Lagos, Lagos, Nigeria
Name:Murtala Muhammed International Airport
ICAO:DNMM
IATA:LOS

Details
Type:Airport (Aerodrome, Airfield)
Use:Public/Civil, Military, International (customs port of entry)
Latitude:634'39"N (6.577369)
Longitude:319'16"E (3.321156)
Datum:WGS 1984
Elevation:135 ft (41 m)
Variation:2.26W (WMM2015 magnetic declination)
0.10 annual change
Runways:2
Longest:12794 × 197 ft (3900 × 60 m), paved

Time
Time Zone:UTC+1
Local Time:

Weather
METAR:DNMM 190800Z 19004KT 8000 FEW010 FEW020CB 26/24 Q1016
TAF:DNMM 190945Z 1912/2018 26011KT 9999 BKN012 PROB30
TEMPO 1913/1917 5000 RA BKN009 FEW019CB
BECMG 1918/1920 VRB02KT SCT009

Related Locations
Nearby:
Farthest:FUN: 12133 mi / 19527 km
Funafuti Atoll [Intl], TV

Find:

   beyond  
but within

Other Information
Maps:
NOTAMs:
Links:
Sources:

  
flag of Nigeria   

Sectional Chart

Flight Planning
at skyvector.com

Satellite Image

Google Maps Satellite view

 

Copyright © 2004-2017 Karl L. Swartz. All rights reserved.
The Great Circle Mapper name and logo are trademarks of the Great Circle Mapper.
All other trademarks mentioned herein belong to their respective owners.
Please see credits for attibutions and further copyright information.

  Follow gcmap on Facebook Follow gcmap on Twitter Follow gcmap on Google+ GCmap on LinkedIn

hCard Microformat

Geo Microformat